Torna al catalogo

THOR ABLESTAR DEB

AttivoLEO
NORAD 133·DEBRIS·🇺🇸 United States

Lanciato Jun 29, 1961 da Cape Canaveral Space Force Station

Loading…

Prossimi Passaggi (prossime 24 ore)

TLE

AggiornatoSource: Space-Track

Epoca: Sep 9, 2026, 17:24 UTC

1 00133U 61015T   26252.72551277  .00000369  00000-0  19669-3 0  9995
2 00133  67.1165   4.7101 0044446  68.9814 291.6030 14.23137178345512

Traccia THOR ABLESTAR DEB in tempo reale con AllMySat

Download on the App Store